| time (UTC) | temp F | wind direction | speed MPH | gust MPH | rain 1hr in | rain 24hr in | rain mn in | humidity % | barometer mb |
| 20260509160517 | 66 | 135 | 9.0 | 14.0 | 0.00 | 0.00 | 0.00 | 80 | 1016.9 |
| 20260509160017 | 66 | 135 | 9.0 | 15.0 | 0.00 | 0.00 | 0.00 | 80 | 1017.0 |
| 20260509155517 | 66 | 135 | 11.0 | 17.0 | 0.00 | 0.00 | 0.00 | 80 | 1017.0 |
| 20260509155037 | 66 | 135 | 8.0 | 16.0 | 0.00 | 0.00 | 0.00 | 80 | 1017.1 |
| 20260509154517 | 66 | 135 | 8.0 | 14.0 | 0.00 | 0.00 | 0.00 | 80 | 1017.2 |
| 20260509154017 | 66 | 135 | 9.0 | 16.0 | 0.00 | 0.00 | 0.00 | 80 | 1017.2 |
| 20260509153557 | 66 | 135 | 8.0 | 14.0 | 0.00 | 0.00 | 0.00 | 79 | 1017.2 |
| 20260509153017 | 66 | 158 | 9.0 | 16.0 | 0.00 | 0.00 | 0.00 | 79 | 1017.2 |
| 20260509152517 | 66 | 135 | 7.0 | 12.0 | 0.00 | 0.00 | 0.00 | 79 | 1017.1 |
| 20260509152017 | 66 | 158 | 8.0 | 13.0 | 0.00 | 0.00 | 0.00 | 79 | 1017.0 |
| 20260509151517 | 66 | 135 | 8.0 | 14.0 | 0.00 | 0.00 | 0.00 | 79 | 1017.0 |
| 20260509151017 | 66 | 135 | 9.0 | 16.0 | 0.00 | 0.00 | 0.00 | 79 | 1017.0 |
| 20260509150517 | 66 | 135 | 9.0 | 14.0 | 0.00 | 0.00 | 0.00 | 79 | 1017.0 |
| 20260509150016 | 67 | 135 | 8.0 | 13.0 | 0.00 | 0.00 | 0.00 | 79 | 1017.1 |
| 20260509145517 | 66 | 135 | 8.0 | 15.0 | 0.00 | 0.00 | 0.00 | 79 | 1017.0 |
| 20260509145017 | 66 | 135 | 9.0 | 17.0 | 0.00 | 0.00 | 0.00 | 79 | 1017.0 |
| 20260509144517 | 66 | 135 | 9.0 | 15.0 | 0.00 | 0.00 | 0.00 | 79 | 1017.0 |
| 20260509144016 | 67 | 135 | 9.0 | 15.0 | 0.00 | 0.00 | 0.00 | 79 | 1017.0 |
| 20260509143516 | 67 | 135 | 7.0 | 14.0 | 0.00 | 0.00 | 0.00 | 79 | 1017.1 |
| 20260509143037 | 67 | 135 | 10.0 | 17.0 | 0.00 | 0.00 | 0.00 | 79 | 1017.1 |
| 20260509142517 | 67 | 135 | 9.0 | 16.0 | 0.00 | 0.00 | 0.00 | 79 | 1017.2 |
| 20260509142057 | 66 | 135 | 10.0 | 18.0 | 0.00 | 0.00 | 0.00 | 80 | 1017.1 |
| 20260509141537 | 66 | 135 | 11.0 | 19.0 | 0.00 | 0.00 | 0.00 | 80 | 1017.1 |
| 20260509141037 | 66 | 135 | 10.0 | 18.0 | 0.00 | 0.00 | 0.00 | 79 | 1017.2 |
| 20260509140516 | 67 | 135 | 10.0 | 16.0 | 0.00 | 0.00 | 0.00 | 79 | 1017.1 |
| 20260509140017 | 66 | 135 | 11.0 | 19.0 | 0.00 | 0.00 | 0.00 | 79 | 1017.2 |
| 20260509135516 | 66 | 135 | 11.0 | 18.0 | 0.00 | 0.00 | 0.00 | 80 | 1017.2 |
| 20260509135037 | 66 | 135 | 13.0 | 18.0 | 0.00 | 0.00 | 0.00 | 79 | 1017.3 |
| 20260509134516 | 67 | 135 | 10.0 | 17.0 | 0.00 | 0.00 | 0.00 | 79 | 1017.2 |
| 20260509134017 | 67 | 135 | 9.0 | 15.0 | 0.00 | 0.00 | 0.00 | 79 | 1017.3 |
| 20260509133517 | 67 | 135 | 9.0 | 17.0 | 0.00 | 0.00 | 0.00 | 79 | 1017.2 |
| 20260509133017 | 67 | 135 | 10.0 | 20.0 | 0.00 | 0.00 | 0.00 | 79 | 1017.3 |
| 20260509132517 | 66 | 135 | 12.0 | 17.0 | 0.00 | 0.00 | 0.00 | 80 | 1017.3 |
| 20260509132016 | 66 | 135 | 12.0 | 21.0 | 0.00 | 0.00 | 0.00 | 80 | 1017.3 |
| 20260509131517 | 66 | 135 | 10.0 | 16.0 | 0.00 | 0.00 | 0.00 | 80 | 1017.3 |
| 20260509131016 | 66 | 135 | 11.0 | 19.0 | 0.00 | 0.00 | 0.00 | 80 | 1017.2 |
| 20260509130537 | 67 | 135 | 10.0 | 21.0 | 0.00 | 0.00 | 0.00 | 78 | 1017.3 |
| 20260509130017 | 67 | 135 | 10.0 | 18.0 | 0.00 | 0.00 | 0.00 | 79 | 1017.3 |
| 20260509125516 | 67 | 135 | 12.0 | 23.0 | 0.00 | 0.00 | 0.00 | 79 | 1017.2 |
| 20260509125017 | 67 | 135 | 11.0 | 19.0 | 0.00 | 0.00 | 0.00 | 78 | 1017.1 |
| 20260509124516 | 67 | 135 | 11.0 | 18.0 | 0.00 | 0.00 | 0.00 | 78 | 1017.2 |
| 20260509124016 | 68 | 135 | 11.0 | 17.0 | 0.00 | 0.00 | 0.00 | 77 | 1017.3 |
| 20260509123517 | 68 | 135 | 12.0 | 18.0 | 0.00 | 0.00 | 0.00 | 77 | 1017.2 |
| 20260509123016 | 68 | 135 | 11.0 | 17.0 | 0.00 | 0.00 | 0.00 | 77 | 1017.2 |
| 20260509122516 | 68 | 135 | 10.0 | 18.0 | 0.00 | 0.00 | 0.00 | 78 | 1017.1 |
| 20260509122036 | 68 | 135 | 10.0 | 19.0 | 0.00 | 0.00 | 0.00 | 78 | 1017.2 |
| 20260509121517 | 68 | 135 | 12.0 | 18.0 | 0.00 | 0.00 | 0.00 | 78 | 1017.2 |
| 20260509121017 | 68 | 135 | 10.0 | 18.0 | 0.00 | 0.00 | 0.00 | 78 | 1017.3 |
| 20260509120516 | 67 | 135 | 16.0 | 24.0 | 0.00 | 0.00 | 0.00 | 79 | 1017.3 |
| 20260509120036 | 69 | 135 | 12.0 | 19.0 | 0.00 | 0.00 | 0.00 | 76 | 1017.2 |
| 20260509115516 | 69 | 135 | 10.0 | 15.0 | 0.00 | 0.00 | 0.00 | 76 | 1017.2 |
| 20260509115016 | 70 | 135 | 9.0 | 15.0 | 0.00 | 0.00 | 0.00 | 74 | 1017.3 |
| 20260509114516 | 69 | 135 | 7.0 | 12.0 | 0.00 | 0.00 | 0.00 | 75 | 1017.3 |
| 20260509114036 | 69 | 135 | 9.0 | 14.0 | 0.00 | 0.00 | 0.00 | 76 | 1017.2 |
| 20260509113516 | 69 | 135 | 9.0 | 16.0 | 0.00 | 0.00 | 0.00 | 76 | 1017.4 |
| 20260509113016 | 69 | 135 | 10.0 | 15.0 | 0.00 | 0.00 | 0.00 | 75 | 1017.4 |
| 20260509112516 | 69 | 135 | 8.0 | 14.0 | 0.00 | 0.00 | 0.00 | 74 | 1017.5 |
| 20260509112016 | 69 | 135 | 10.0 | 17.0 | 0.00 | 0.00 | 0.00 | 75 | 1017.4 |
| 20260509111516 | 68 | 135 | 11.0 | 18.0 | 0.00 | 0.00 | 0.00 | 76 | 1017.4 |
| 20260509111016 | 69 | 135 | 9.0 | 17.0 | 0.00 | 0.00 | 0.00 | 76 | 1017.4 |
| 20260509110536 | 68 | 135 | 10.0 | 16.0 | 0.00 | 0.00 | 0.00 | 76 | 1017.5 |
| 20260509110017 | 69 | 135 | 8.0 | 14.0 | 0.00 | 0.00 | 0.00 | 75 | 1017.6 |
| 20260509105516 | 69 | 135 | 8.0 | 12.0 | 0.00 | 0.00 | 0.00 | 75 | 1017.7 |
| 20260509105036 | 69 | 135 | 11.0 | 19.0 | 0.00 | 0.00 | 0.00 | 74 | 1017.7 |
| 20260509104516 | 69 | 135 | 9.0 | 14.0 | 0.00 | 0.00 | 0.00 | 71 | 1017.8 |
| 20260509104016 | 71 | 135 | 9.0 | 16.0 | 0.00 | 0.00 | 0.00 | 69 | 1017.8 |
| 20260509103516 | 71 | 113 | 6.0 | 11.0 | 0.00 | 0.00 | 0.00 | 67 | 1017.6 |
| 20260509103016 | 71 | 113 | 6.0 | 11.0 | 0.00 | 0.00 | 0.00 | 68 | 1017.5 |
| 20260509102516 | 71 | 68 | 5.0 | 11.0 | 0.00 | 0.00 | 0.00 | 67 | 1017.5 |
| 20260509102016 | 71 | 113 | 5.0 | 10.0 | 0.00 | 0.00 | 0.00 | 68 | 1017.5 |
| 20260509101517 | 71 | 113 | 6.0 | 10.0 | 0.00 | 0.00 | 0.00 | 67 | 1017.4 |
| 20260509101016 | 71 | 68 | 4.0 | 11.0 | 0.00 | 0.00 | 0.00 | 68 | 1017.4 |
| 20260509100516 | 71 | 90 | 5.0 | 9.0 | 0.00 | 0.00 | 0.00 | 68 | 1017.4 |
| 20260509100016 | 71 | 45 | 3.0 | 11.0 | 0.00 | 0.00 | 0.00 | 69 | 1017.3 |
| 20260509095516 | 70 | 90 | 6.0 | 11.0 | 0.00 | 0.00 | 0.00 | 70 | 1017.3 |
| 20260509095016 | 70 | 68 | 5.0 | 12.0 | 0.00 | 0.00 | 0.00 | 71 | 1017.4 |
| 20260509094516 | 69 | 68 | 8.0 | 17.0 | 0.00 | 0.00 | 0.00 | 72 | 1017.3 |
| 20260509094056 | 69 | 68 | 7.0 | 16.0 | 0.00 | 0.00 | 0.00 | 72 | 1017.3 |
| 20260509093516 | 69 | 45 | 8.0 | 16.0 | 0.00 | 0.00 | 0.00 | 72 | 1017.4 |
| 20260509093016 | 69 | 90 | 8.0 | 14.0 | 0.00 | 0.00 | 0.00 | 71 | 1017.3 |
| 20260509092518 | 70 | 113 | 5.0 | 12.0 | 0.00 | 0.00 | 0.00 | 71 | 1017.3 |
| 20260509092018 | 70 | 90 | 5.0 | 11.0 | 0.00 | 0.00 | 0.00 | 71 | 1017.4 |
| 20260509091518 | 70 | 113 | 6.0 | 13.0 | 0.00 | 0.00 | 0.00 | 68 | 1017.3 |
| 20260509091018 | 71 | 90 | 7.0 | 12.0 | 0.00 | 0.00 | 0.00 | 67 | 1017.2 |
| 20260509090518 | 70 | 90 | 6.0 | 11.0 | 0.00 | 0.00 | 0.00 | 68 | 1017.1 |
| 20260509090018 | 70 | 68 | 7.0 | 13.0 | 0.00 | 0.00 | 0.00 | 69 | 1017.3 |
| 20260509085538 | 70 | 68 | 7.0 | 14.0 | 0.00 | 0.00 | 0.00 | 68 | 1017.2 |
| 20260509085018 | 70 | 68 | 8.0 | 14.0 | 0.00 | 0.00 | 0.00 | 69 | 1017.3 |
| 20260509084518 | 69 | 68 | 8.0 | 13.0 | 0.00 | 0.00 | 0.00 | 70 | 1017.3 |
| 20260509084038 | 69 | 68 | 9.0 | 15.0 | 0.00 | 0.00 | 0.00 | 70 | 1017.3 |
| 20260509083518 | 69 | 68 | 7.0 | 13.0 | 0.00 | 0.00 | 0.00 | 70 | 1017.4 |
| 20260509083018 | 69 | 68 | 8.0 | 15.0 | 0.00 | 0.00 | 0.00 | 70 | 1017.3 |
| 20260509082518 | 69 | 68 | 8.0 | 17.0 | 0.00 | 0.00 | 0.00 | 68 | 1017.4 |
| 20260509082018 | 70 | 68 | 7.0 | 15.0 | 0.00 | 0.00 | 0.00 | 67 | 1017.6 |
| 20260509081518 | 71 | 68 | 4.0 | 13.0 | 0.00 | 0.00 | 0.00 | 65 | 1017.4 |
| 20260509081018 | 71 | 338 | 4.0 | 10.0 | 0.00 | 0.00 | 0.00 | 63 | 1017.5 |
| 20260509080518 | 71 | 270 | 5.0 | 14.0 | 0.00 | 0.00 | 0.00 | 62 | 1017.4 |
| 20260509080018 | 70 | 270 | 4.0 | 10.0 | 0.00 | 0.00 | 0.00 | 63 | 1017.3 |
| 20260509075517 | 70 | 270 | 4.0 | 11.0 | 0.00 | 0.00 | 0.00 | 63 | 1017.3 |
| 20260509075018 | 69 | 270 | 7.0 | 13.0 | 0.00 | 0.00 | 0.00 | 65 | 1017.3 |
| 20260509074518 | 69 | 270 | 6.0 | 14.0 | 0.00 | 0.00 | 0.00 | 66 | 1017.3 |
| 20260509074018 | 68 | 270 | 12.0 | 17.0 | 0.00 | 0.00 | 0.00 | 67 | 1017.1 |
| 20260509073518 | 68 | 293 | 10.0 | 16.0 | 0.00 | 0.00 | 0.00 | 68 | 1017.2 |
| 20260509073018 | 68 | 270 | 11.0 | 18.0 | 0.00 | 0.00 | 0.00 | 69 | 1017.3 |
| 20260509072518 | 68 | 270 | 12.0 | 17.0 | 0.00 | 0.00 | 0.00 | 68 | 1017.2 |
| 20260509072018 | 68 | 270 | 10.0 | 15.0 | 0.00 | 0.00 | 0.00 | 68 | 1017.3 |
| 20260509071517 | 68 | 270 | 9.0 | 18.0 | 0.00 | 0.00 | 0.00 | 69 | 1017.3 |
| 20260509071018 | 68 | 270 | 8.0 | 15.0 | 0.00 | 0.00 | 0.00 | 70 | 1017.3 |
| 20260509070518 | 67 | 248 | 7.0 | 14.0 | 0.00 | 0.00 | 0.00 | 70 | 1017.3 |
| 20260509070037 | 67 | 270 | 7.0 | 14.0 | 0.00 | 0.00 | 0.00 | 72 | 1017.4 |
| 20260509065538 | 67 | 270 | 9.0 | 16.0 | 0.00 | 0.00 | 0.00 | 71 | 1017.5 |
| 20260509065018 | 67 | 270 | 7.0 | 11.0 | 0.00 | 0.00 | 0.00 | 70 | 1017.4 |
| 20260509064518 | 67 | 270 | 6.0 | 13.0 | 0.00 | 0.00 | 0.00 | 70 | 1017.3 |
| 20260509064018 | 68 | 270 | 7.0 | 13.0 | 0.00 | 0.00 | 0.00 | 70 | 1017.4 |
| 20260509063518 | 68 | 270 | 6.0 | 13.0 | 0.00 | 0.00 | 0.00 | 70 | 1017.4 |
| 20260509063017 | 68 | 315 | 5.0 | 10.0 | 0.00 | 0.00 | 0.00 | 70 | 1017.4 |
| 20260509062537 | 68 | 270 | 7.0 | 13.0 | 0.00 | 0.00 | 0.00 | 70 | 1017.4 |
| 20260509062018 | 68 | 270 | 7.0 | 13.0 | 0.00 | 0.00 | 0.00 | 70 | 1017.2 |
| 20260509061518 | 67 | 270 | 6.0 | 14.0 | 0.00 | 0.00 | 0.00 | 71 | 1017.2 |
| 20260509061018 | 67 | 315 | 6.0 | 12.0 | 0.00 | 0.00 | 0.00 | 72 | 1017.2 |
| 20260509060518 | 67 | 293 | 4.0 | 7.0 | 0.00 | 0.00 | 0.00 | 73 | 1017.1 |
| 20260509060037 | 67 | 315 | 4.0 | 9.0 | 0.00 | 0.00 | 0.00 | 73 | 1017.0 |
| 20260509055518 | 67 | 315 | 6.0 | 14.0 | 0.00 | 0.00 | 0.00 | 72 | 1017.1 |
| 20260509055017 | 67 | 315 | 4.0 | 9.0 | 0.00 | 0.00 | 0.00 | 71 | 1017.0 |
| 20260509054517 | 67 | 270 | 5.0 | 9.0 | 0.00 | 0.00 | 0.00 | 69 | 1017.0 |
| 20260509054017 | 68 | 270 | 5.0 | 9.0 | 0.00 | 0.00 | 0.00 | 69 | 1016.9 |
| 20260509053517 | 68 | 270 | 4.0 | 10.0 | 0.00 | 0.00 | 0.00 | 69 | 1016.9 |
| 20260509053017 | 68 | 315 | 5.0 | 13.0 | 0.00 | 0.00 | 0.00 | 69 | 1016.9 |
| 20260509052517 | 68 | 270 | 5.0 | 10.0 | 0.00 | 0.00 | 0.00 | 69 | 1016.7 |
| 20260509052017 | 67 | 270 | 5.0 | 12.0 | 0.00 | 0.00 | 0.00 | 69 | 1016.7 |
| 20260509051517 | 67 | 270 | 6.0 | 11.0 | 0.00 | 0.00 | 0.00 | 69 | 1016.5 |
| 20260509051037 | 67 | 270 | 5.0 | 11.0 | 0.00 | 0.00 | 0.00 | 70 | 1016.4 |
| 20260509050517 | 67 | 270 | 6.0 | 12.0 | 0.00 | 0.00 | 0.00 | 70 | 1016.5 |
| 20260509050017 | 67 | 270 | 5.0 | 12.0 | 0.00 | 0.00 | 0.00 | 69 | 1016.4 |
| 20260509045517 | 67 | 270 | 7.0 | 11.0 | 0.00 | 0.00 | 0.00 | 70 | 1016.4 |
| 20260509045017 | 67 | 270 | 6.0 | 11.0 | 0.00 | 0.00 | 0.00 | 70 | 1016.3 |
| 20260509044517 | 67 | 270 | 5.0 | 11.0 | 0.00 | 0.00 | 0.00 | 70 | 1016.3 |
| 20260509044037 | 67 | 270 | 6.0 | 11.0 | 0.00 | 0.00 | 0.00 | 71 | 1016.4 |
| 20260509043517 | 67 | 270 | 9.0 | 13.0 | 0.00 | 0.00 | 0.00 | 71 | 1016.3 |
| 20260509043017 | 66 | 270 | 5.0 | 13.0 | 0.00 | 0.00 | 0.00 | 72 | 1016.3 |
| 20260509042517 | 66 | 270 | 3.0 | 5.0 | 0.00 | 0.00 | 0.00 | 73 | 1016.2 |
| 20260509042017 | 66 | 270 | 2.0 | 4.0 | 0.00 | 0.00 | 0.00 | 72 | 1016.3 |
| 20260509041517 | 66 | 270 | 2.0 | 4.0 | 0.00 | 0.00 | 0.00 | 72 | 1016.3 |
| 20260509041017 | 66 | 293 | 3.0 | 4.0 | 0.00 | 0.00 | 0.00 | 72 | 1016.4 |
| 20260509040517 | 66 | 270 | 3.0 | 5.0 | 0.00 | 0.00 | 0.00 | 71 | 1016.3 |
| 20260509040017 | 66 | 293 | 4.0 | 7.0 | 0.00 | 0.00 | 0.00 | 71 | 1016.3 |
| 20260509035517 | 66 | 293 | 6.0 | 10.0 | 0.00 | 0.00 | 0.00 | 71 | 1016.3 |
| 20260509035017 | 66 | 293 | 3.0 | 6.0 | 0.00 | 0.00 | 0.00 | 72 | 1016.3 |
| 20260509034518 | 66 | 270 | 4.0 | 7.0 | 0.00 | 0.00 | 0.00 | 72 | 1016.3 |
| 20260509034017 | 66 | 270 | 5.0 | 10.0 | 0.00 | 0.00 | 0.00 | 72 | 1016.2 |
| 20260509033518 | 66 | 315 | 5.0 | 10.0 | 0.00 | 0.00 | 0.00 | 72 | 1016.1 |
| 20260509033017 | 66 | 315 | 8.0 | 14.0 | 0.00 | 0.00 | 0.00 | 72 | 1015.9 |
| 20260509032517 | 66 | 315 | 3.0 | 12.0 | 0.00 | 0.00 | 0.00 | 71 | 1015.9 |
| 20260509032017 | 66 | 338 | 3.0 | 7.0 | 0.00 | 0.00 | 0.00 | 71 | 1015.8 |
| 20260509031657 | 66 | 225 | 2.0 | 5.0 | 0.00 | 0.00 | 0.00 | 71 | 1015.7 |
| 20260509031017 | 66 | 225 | 4.0 | 9.0 | 0.00 | 0.00 | 0.00 | 72 | 1015.6 |
| 20260509030517 | 65 | 225 | 1.0 | 2.0 | 0.00 | 0.00 | 0.00 | 75 | 1015.5 |
| 20260509030037 | 65 | 225 | 1.0 | 2.0 | 0.00 | 0.00 | 0.00 | 74 | 1015.4 |
| 20260509025517 | 65 | 248 | 1.0 | 3.0 | 0.00 | 0.00 | 0.00 | 74 | 1015.4 |
| 20260509025017 | 66 | 90 | 1.0 | 4.0 | 0.00 | 0.00 | 0.00 | 73 | 1015.2 |
| 20260509024517 | 66 | 45 | 4.0 | 14.0 | 0.00 | 0.00 | 0.00 | 73 | 1015.3 |
| 20260509024017 | 65 | 0 | 5.0 | 11.0 | 0.00 | 0.00 | 0.00 | 73 | 1015.2 |
| 20260509023517 | 64 | 45 | 2.0 | 5.0 | 0.00 | 0.00 | 0.00 | 76 | 1015.3 |
| 20260509023017 | 64 | 248 | 1.0 | 4.0 | 0.00 | 0.00 | 0.00 | 77 | 1015.3 |
| 20260509022517 | 63 | 293 | 2.0 | 5.0 | 0.00 | 0.00 | 0.00 | 78 | 1015.2 |
| 20260509022057 | 63 | 293 | 1.0 | 5.0 | 0.00 | 0.00 | 0.00 | 77 | 1015.3 |
| 20260509021537 | 63 | 293 | 3.0 | 5.0 | 0.00 | 0.00 | 0.00 | 77 | 1015.2 |
| 20260509021017 | 63 | 0.0 | 2.0 | 0.00 | 0.00 | 0.00 | 76 | 1015.2 | |
| 20260509020517 | 63 | 0.0 | 2.0 | 0.00 | 0.00 | 0.00 | 76 | 1015.3 | |
| 20260509020017 | 64 | 293 | 1.0 | 2.0 | 0.00 | 0.00 | 0.00 | 76 | 1015.3 |
| 20260509015517 | 64 | 0.0 | 1.0 | 0.00 | 0.00 | 0.00 | 76 | 1015.4 | |
| 20260509015037 | 64 | 315 | 1.0 | 2.0 | 0.00 | 0.00 | 0.00 | 75 | 1015.4 |
| 20260509014517 | 64 | 248 | 1.0 | 3.0 | 0.00 | 0.00 | 0.00 | 74 | 1015.3 |
| 20260509014017 | 65 | 0.0 | 2.0 | 0.00 | 0.00 | 0.00 | 74 | 1015.3 | |
| 20260509013517 | 65 | 68 | 2.0 | 4.0 | 0.00 | 0.00 | 0.00 | 74 | 1015.2 |
| 20260509013016 | 65 | 68 | 2.0 | 4.0 | 0.00 | 0.00 | 0.00 | 73 | 1015.0 |
| 20260509012517 | 65 | 293 | 2.0 | 4.0 | 0.00 | 0.00 | 0.00 | 72 | 1015.1 |
| 20260509012017 | 65 | 113 | 1.0 | 2.0 | 0.00 | 0.00 | 0.00 | 73 | 1015.0 |
| 20260509011537 | 65 | 113 | 1.0 | 2.0 | 0.00 | 0.00 | 0.00 | 73 | 1015.0 |
| 20260509011016 | 65 | 0.0 | 2.0 | 0.00 | 0.00 | 0.00 | 73 | 1015.1 | |
| 20260509010516 | 65 | 270 | 3.0 | 7.0 | 0.00 | 0.00 | 0.00 | 72 | 1015.1 |
| 20260509010016 | 65 | 23 | 2.0 | 4.0 | 0.00 | 0.00 | 0.00 | 71 | 1015.0 |
| 20260509005516 | 65 | 0 | 2.0 | 4.0 | 0.00 | 0.00 | 0.00 | 73 | 1015.1 |
| 20260509005016 | 65 | 338 | 1.0 | 3.0 | 0.00 | 0.00 | 0.00 | 73 | 1015.2 |
| 20260509004516 | 64 | 315 | 1.0 | 2.0 | 0.00 | 0.00 | 0.00 | 74 | 1015.1 |
| 20260509004017 | 64 | 0.0 | 2.0 | 0.00 | 0.00 | 0.00 | 73 | 1015.2 | |
| 20260509003517 | 65 | 68 | 1.0 | 3.0 | 0.00 | 0.00 | 0.00 | 73 | 1015.2 |
| 20260509003036 | 64 | 293 | 1.0 | 2.0 | 0.00 | 0.00 | 0.00 | 73 | 1015.3 |
| 20260509002517 | 64 | 293 | 1.0 | 2.0 | 0.00 | 0.00 | 0.00 | 72 | 1015.3 |
| 20260509002016 | 65 | 315 | 1.0 | 1.0 | 0.00 | 0.00 | 0.00 | 72 | 1015.4 |
| 20260509001516 | 65 | 315 | 1.0 | 2.0 | 0.00 | 0.00 | 0.00 | 71 | 1015.4 |
| 20260509001037 | 65 | 338 | 1.0 | 2.0 | 0.00 | 0.00 | 0.00 | 72 | 1015.3 |
| 20260509000516 | 66 | 315 | 1.0 | 2.0 | 0.00 | 0.00 | 0.00 | 71 | 1015.3 |
| 20260509000017 | 66 | 315 | 1.0 | 2.0 | 0.00 | 0.00 | 0.00 | 71 | 1015.2 |
| 20260508235516 | 66 | 338 | 2.0 | 4.0 | 0.00 | 0.00 | 0.00 | 70 | 1015.1 |
| 20260508235017 | 66 | 0 | 3.0 | 9.0 | 0.00 | 0.00 | 0.00 | 70 | 1015.1 |
| 20260508234516 | 66 | 45 | 5.0 | 10.0 | 0.00 | 0.00 | 0.00 | 70 | 1015.1 |
| 20260508234017 | 67 | 68 | 5.0 | 12.0 | 0.00 | 0.00 | 0.00 | 68 | 1015.2 |
| 20260508233516 | 66 | 270 | 2.0 | 3.0 | 0.00 | 0.00 | 0.00 | 66 | 1015.1 |
| 20260508233016 | 66 | 203 | 2.0 | 4.0 | 0.00 | 0.00 | 0.00 | 67 | 1015.3 |
| 20260508232517 | 67 | 225 | 3.0 | 8.0 | 0.00 | 0.00 | 0.00 | 65 | 1015.2 |
| 20260508232056 | 67 | 203 | 1.0 | 9.0 | 0.00 | 0.00 | 0.00 | 64 | 1015.3 |
| 20260508231536 | 67 | 158 | 1.0 | 4.0 | 0.00 | 0.00 | 0.00 | 64 | 1015.3 |
| 20260508231016 | 68 | 135 | 3.0 | 10.0 | 0.00 | 0.00 | 0.00 | 63 | 1015.3 |
| 20260508230517 | 67 | 203 | 5.0 | 12.0 | 0.00 | 0.00 | 0.00 | 64 | 1015.4 |
| 20260508230017 | 67 | 248 | 5.0 | 13.0 | 0.00 | 0.00 | 0.00 | 64 | 1015.5 |
| 20260508225536 | 67 | 0 | 3.0 | 5.0 | 0.00 | 0.00 | 0.00 | 64 | 1015.5 |
| 20260508225016 | 67 | 0 | 5.0 | 13.0 | 0.00 | 0.00 | 0.00 | 63 | 1015.5 |
| 20260508224516 | 67 | 0 | 4.0 | 6.0 | 0.00 | 0.00 | 0.00 | 63 | 1015.5 |
| 20260508224016 | 67 | 0 | 5.0 | 11.0 | 0.00 | 0.00 | 0.00 | 62 | 1015.3 |
| 20260508223517 | 67 | 0 | 6.0 | 11.0 | 0.00 | 0.00 | 0.00 | 63 | 1015.3 |
| 20260508223016 | 66 | 338 | 3.0 | 6.0 | 0.00 | 0.00 | 0.00 | 67 | 1015.4 |
| 20260508222556 | 67 | 338 | 3.0 | 9.0 | 0.00 | 0.00 | 0.00 | 66 | 1015.4 |
| 20260508222016 | 67 | 315 | 3.0 | 6.0 | 0.00 | 0.00 | 0.00 | 64 | 1015.2 |
| 20260508221516 | 67 | 338 | 3.0 | 5.0 | 0.00 | 0.00 | 0.00 | 65 | 1015.3 |
| 20260508221016 | 67 | 0 | 2.0 | 6.0 | 0.00 | 0.00 | 0.00 | 66 | 1015.3 |
| 20260508220516 | 67 | 293 | 3.0 | 6.0 | 0.00 | 0.00 | 0.00 | 64 | 1015.2 |
| 20260508220016 | 67 | 293 | 4.0 | 6.0 | 0.00 | 0.00 | 0.00 | 65 | 1015.3 |
| 20260508215517 | 67 | 315 | 5.0 | 9.0 | 0.00 | 0.00 | 0.00 | 68 | 1015.3 |
| 20260508215016 | 67 | 338 | 2.0 | 5.0 | 0.00 | 0.00 | 0.00 | 66 | 1015.2 |
| 20260508214516 | 67 | 338 | 4.0 | 6.0 | 0.00 | 0.00 | 0.00 | 67 | 1015.1 |
| 20260508214016 | 66 | 338 | 2.0 | 3.0 | 0.00 | 0.00 | 0.00 | 68 | 1015.2 |
| 20260508213518 | 65 | 315 | 2.0 | 3.0 | 0.00 | 0.00 | 0.00 | 70 | 1015.2 |
| 20260508213018 | 65 | 315 | 1.0 | 3.0 | 0.00 | 0.00 | 0.00 | 73 | 1015.2 |
| 20260508212518 | 65 | 315 | 2.0 | 3.0 | 0.00 | 0.00 | 0.00 | 73 | 1015.2 |
| 20260508212018 | 65 | 315 | 1.0 | 2.0 | 0.00 | 0.00 | 0.00 | 73 | 1015.1 |
| 20260508211518 | 65 | 293 | 2.0 | 3.0 | 0.00 | 0.00 | 0.00 | 73 | 1015.1 |
| 20260508211018 | 65 | 293 | 2.0 | 3.0 | 0.00 | 0.00 | 0.00 | 73 | 1015.1 |
| 20260508210518 | 65 | 293 | 1.0 | 2.0 | 0.00 | 0.00 | 0.00 | 73 | 1015.1 |
| 20260508210018 | 65 | 293 | 2.0 | 3.0 | 0.00 | 0.00 | 0.00 | 73 | 1015.1 |
| 20260508205520 | 65 | 315 | 1.0 | 2.0 | 0.00 | 0.00 | 0.00 | 72 | 1015.2 |
| 20260508205038 | 66 | 293 | 2.0 | 3.0 | 0.00 | 0.00 | 0.00 | 72 | 1015.0 |
| 20260508204518 | 66 | 293 | 1.0 | 2.0 | 0.00 | 0.00 | 0.00 | 72 | 1015.1 |
| 20260508204038 | 66 | 315 | 1.0 | 2.0 | 0.00 | 0.00 | 0.00 | 72 | 1015.1 |
| 20260508203518 | 66 | 270 | 1.0 | 2.0 | 0.00 | 0.00 | 0.00 | 71 | 1015.2 |
| 20260508203038 | 67 | 0.0 | 1.0 | 0.00 | 0.00 | 0.00 | 71 | 1015.3 | |
| 20260508202538 | 67 | 0.0 | 2.0 | 0.00 | 0.00 | 0.00 | 71 | 1015.2 | |
| 20260508202018 | 67 | 315 | 2.0 | 4.0 | 0.00 | 0.00 | 0.00 | 71 | 1015.1 |
| 20260508201518 | 67 | 315 | 2.0 | 6.0 | 0.00 | 0.00 | 0.00 | 70 | 1015.3 |
| 20260508201018 | 67 | 315 | 2.0 | 3.0 | 0.00 | 0.00 | 0.00 | 70 | 1015.0 |
| 20260508200518 | 67 | 338 | 1.0 | 3.0 | 0.00 | 0.00 | 0.00 | 70 | 1015.1 |
| 20260508200018 | 67 | 315 | 1.0 | 2.0 | 0.00 | 0.00 | 0.00 | 70 | 1015.0 |
| 20260508195538 | 67 | 315 | 1.0 | 2.0 | 0.00 | 0.00 | 0.00 | 70 | 1014.8 |
| 20260508195017 | 67 | 338 | 1.0 | 3.0 | 0.00 | 0.00 | 0.00 | 70 | 1014.8 |
| 20260508194517 | 67 | 0.0 | 2.0 | 0.00 | 0.00 | 0.00 | 70 | 1014.8 | |
| 20260508194017 | 67 | 338 | 1.0 | 2.0 | 0.00 | 0.00 | 0.00 | 70 | 1014.8 |
| 20260508193538 | 67 | 315 | 1.0 | 2.0 | 0.00 | 0.00 | 0.00 | 70 | 1014.7 |
| 20260508193018 | 67 | 315 | 2.0 | 4.0 | 0.00 | 0.00 | 0.00 | 70 | 1014.6 |
| 20260508192538 | 68 | 113 | 1.0 | 4.0 | 0.00 | 0.00 | 0.00 | 70 | 1014.6 |
| 20260508192018 | 68 | 0.0 | 2.0 | 0.00 | 0.00 | 0.00 | 69 | 1014.6 | |
| 20260508191518 | 68 | 180 | 1.0 | 2.0 | 0.00 | 0.00 | 0.00 | 69 | 1014.6 |
| 20260508191017 | 68 | 293 | 1.0 | 5.0 | 0.00 | 0.00 | 0.00 | 69 | 1014.3 |
| 20260508190518 | 68 | 68 | 2.0 | 6.0 | 0.00 | 0.00 | 0.00 | 69 | 1014.3 |
| 20260508190018 | 68 | 90 | 2.0 | 5.0 | 0.00 | 0.00 | 0.00 | 68 | 1014.2 |
| 20260508185538 | 68 | 45 | 3.0 | 6.0 | 0.00 | 0.00 | 0.00 | 68 | 1014.1 |
| 20260508185017 | 68 | 315 | 1.0 | 4.0 | 0.00 | 0.00 | 0.00 | 67 | 1014.0 |
| 20260508184517 | 68 | 68 | 2.0 | 6.0 | 0.00 | 0.00 | 0.00 | 67 | 1014.1 |
| 20260508184017 | 68 | 90 | 3.0 | 7.0 | 0.00 | 0.00 | 0.00 | 67 | 1014.0 |
| 20260508183518 | 68 | 90 | 1.0 | 3.0 | 0.00 | 0.00 | 0.00 | 66 | 1014.0 |
| 20260508183017 | 68 | 338 | 2.0 | 5.0 | 0.00 | 0.00 | 0.00 | 66 | 1013.9 |
| 20260508182517 | 69 | 90 | 3.0 | 9.0 | 0.00 | 0.00 | 0.00 | 65 | 1013.8 |
| 20260508182038 | 69 | 68 | 3.0 | 12.0 | 0.00 | 0.00 | 0.00 | 64 | 1013.6 |
| 20260508181517 | 69 | 68 | 2.0 | 5.0 | 0.00 | 0.00 | 0.00 | 62 | 1013.5 |
| 20260508181018 | 69 | 68 | 1.0 | 3.0 | 0.00 | 0.00 | 0.00 | 64 | 1013.5 |
| 20260508180517 | 69 | 315 | 2.0 | 4.0 | 0.00 | 0.00 | 0.00 | 63 | 1013.5 |
| 20260508180037 | 69 | 315 | 2.0 | 5.0 | 0.00 | 0.00 | 0.00 | 63 | 1013.3 |
| 20260508175517 | 69 | 315 | 2.0 | 6.0 | 0.00 | 0.00 | 0.00 | 63 | 1013.4 |
| 20260508175038 | 69 | 45 | 3.0 | 6.0 | 0.00 | 0.00 | 0.00 | 63 | 1013.3 |
| 20260508174518 | 69 | 68 | 4.0 | 7.0 | 0.00 | 0.00 | 0.00 | 64 | 1013.2 |
| 20260508174018 | 70 | 113 | 3.0 | 6.0 | 0.00 | 0.00 | 0.00 | 64 | 1013.2 |
| 20260508173537 | 70 | 90 | 4.0 | 6.0 | 0.00 | 0.00 | 0.00 | 63 | 1013.1 |
| 20260508173117 | 70 | 68 | 5.0 | 9.0 | 0.00 | 0.00 | 0.00 | 63 | 1013.0 |
| 20260508172637 | 71 | 68 | 3.0 | 7.0 | 0.00 | 0.00 | 0.00 | 59 | 1012.9 |
| 20260508172017 | 71 | 45 | 3.0 | 6.0 | 0.00 | 0.00 | 0.00 | 58 | 1012.9 |
| 20260508171517 | 71 | 68 | 2.0 | 4.0 | 0.00 | 0.00 | 0.00 | 59 | 1012.7 |
| 20260508171017 | 72 | 68 | 5.0 | 9.0 | 0.00 | 0.00 | 0.00 | 59 | 1012.7 |
| 20260508170517 | 72 | 68 | 3.0 | 9.0 | 0.00 | 0.00 | 0.00 | 58 | 1012.6 |
| 20260508170017 | 72 | 270 | 2.0 | 4.0 | 0.00 | 0.00 | 0.00 | 57 | 1012.5 |
| 20260508165517 | 73 | 225 | 4.0 | 10.0 | 0.00 | 0.00 | 0.00 | 56 | 1012.3 |
| 20260508165017 | 73 | 90 | 2.0 | 4.0 | 0.00 | 0.00 | 0.00 | 54 | 1012.4 |
| 20260508164517 | 73 | 68 | 2.0 | 5.0 | 0.00 | 0.00 | 0.00 | 54 | 1012.5 |
| 20260508164017 | 74 | 135 | 4.0 | 9.0 | 0.00 | 0.00 | 0.00 | 54 | 1012.6 |
| 20260508163517 | 74 | 135 | 5.0 | 9.0 | 0.00 | 0.00 | 0.00 | 54 | 1012.5 |
| 20260508163017 | 74 | 135 | 2.0 | 4.0 | 0.00 | 0.00 | 0.00 | 54 | 1012.4 |
| 20260508162517 | 74 | 113 | 2.0 | 5.0 | 0.00 | 0.00 | 0.00 | 54 | 1012.4 |
| 20260508162017 | 74 | 135 | 1.0 | 3.0 | 0.00 | 0.00 | 0.00 | 53 | 1012.6 |
| 20260508161517 | 74 | 203 | 3.0 | 6.0 | 0.00 | 0.00 | 0.00 | 54 | 1012.6 |
| 20260508161017 | 75 | 203 | 4.0 | 7.0 | 0.00 | 0.00 | 0.00 | 53 | 1012.6 |